Lid_Strength_Index
3 3 3 3 3 3 3 3 3 3 3 3 3 3 3 3 3 3 3 3 3 3 3 2 2 3 3 6 8 2 -2 -1 -1 0 2 3 4 4 6 5 5 7 6 6 5 5 5
3 3 3 3 3 3 3 3 3 3 3 3 3 3 3 3 3 3 3 3 4 3 3 2 2 2 4 8 4 2 -0 0 2 2 2 2 3 3 5 5 6 5 5 6 5 5 5
3 3 3 3 3 3 4 4 4 4 4 3 3 3 3 3 4 4 4 4 4 3 2 2 2 2 5 6 3 2 0 1 -0 1 2 1 2 3 5 6 4 5 7 6 6 6 6
3 3 3 3 3 3 4 4 4 4 4 4 4 4 4 4 4 4 4 4 3 3 2 2 2 2 6 4 2 4 2 1 -0 0 1 1 2 3 4 5 7 7 7 9 6 6 6
3 3 3 3 3 3 3 3 3 4 4 4 4 4 4 4 4 4 4 4 2 2 1 1 2 4 8 4 6 5 4 3 1 2 1 2 3 4 4 7 8 8 10 9 9 6 6
4 4 4 3 3 3 3 3 3 4 4 4 4 4 4 4 5 5 5 4 1 1 1 1 3 6 7 8 6 6 4 2 3 3 5 5 5 7 7 7 10 9 9 8 9 7 7
4 4 4 4 4 4 4 3 4 4 4 4 4 4 5 5 5 5 5 5 5 7 6 9 9 9 8 6 5 6 3 3 3 4 7 7 8 9 8 7 7 7 7 8 7 7 8
4 4 4 4 5 5 5 4 4 4 4 4 5 5 5 5 5 5 5 7 7 7 9 8 9 8 8 7 8 7 3 5 6 7 7 8 10 7 6 7 8 8 8 8 7 6 8
4 4 4 4 4 4 4 5 5 5 5 5 5 5 5 5 5 5 6 7 5 6 9 9 9 9 9 7 9 9 6 5 6 7 8 9 8 7 8 8 9 9 8 8 8 7 7
3 4 4 4 4 4 4 5 5 5 5 5 5 5 5 6 7 5 6 5 4 5 11 11 10 9 8 8 9 7 5 7 7 7 7 8 6 8 8 9 8 10 7 8 7 9 11
3 3 4 4 4 4 4 4 4 4 4 4 4 5 5 6 5 5 5 4 5 7 15 11 9 6 7 8 8 8 4 5 8 8 6 8 8 8 9 8 7 9 7 8 8 8 9
3 3 3 3 3 3 3 3 3 3 4 4 4 5 6 5 4 4 3 4 5 10 15 11 8 9 8 8 8 7 6 5 5 7 6 6 5 6 7 6 7 7 8 8 8 8 12
3 3 2 2 3 2 3 3 4 4 4 4 5 5 5 3 5 2 2 4 9 11 8 10 9 8 8 9 8 7 8 8 8 10 9 7 7 5 5 7 6 7 9 12 12 12 13
3 2 2 3 3 3 3 3 3 4 4 3 4 5 4 2 1 1 2 5 11 9 9 8 8 8 10 9 9 9 9 9 7 8 9 10 10 7 5 7 8 8 8 11 14 13 12
3 3 3 4 3 3 3 3 3 2 3 3 4 1 1 1 1 2 4 9 9 9 8 9 9 10 10 9 9 9 9 9 8 7 10 10 10 6 6 5 6 8 9 7 9 9 11
3 3 4 4 3 3 3 2 2 2 3 3 3 2 3 1 2 3 6 10 9 8 8 8 11 10 11 10 11 10 10 8 9 8 7 8 11 7 7 6 6 7 6 10 9 13 14
3 3 3 3 2 1 1 2 2 2 3 3 3 4 3 2 3 4 8 9 9 7 8 9 10 10 10 11 11 10 11 9 8 8 7 8 10 9 8 8 8 8 9 8 8 9 12
3 3 3 2 1 1 1 2 2 3 4 3 4 6 3 2 5 6 8 9 10 8 7 8 8 9 9 9 10 10 11 9 8 8 10 8 9 11 10 6 6 7 8 8 11 12 10
3 2 2 1 2 1 2 2 2 3 4 3 6 6 3 3 8 8 8 9 8 9 8 9 9 9 8 9 11 9 9 7 7 8 9 8 11 13 11 9 6 8 8 8 8 8 11
2 2 2 2 2 2 2 2 2 3 3 3 5 7 5 5 6 8 9 10 10 8 8 8 8 7 8 8 7 9 9 7 6 6 6 7 10 11 12 10 9 11 9 9 9 12 11
2 2 2 2 2 2 1 2 2 2 3 4 5 7 7 9 9 8 8 9 10 10 7 6 8 8 8 11 10 10 8 7 6 5 6 7 10 9 10 9 10 10 10 9 10 9 11
2 2 2 2 2 2 2 1 2 2 3 3 5 6 6 9 8 9 9 10 10 10 10 9 9 8 8 10 9 10 8 7 8 6 7 6 11 9 11 10 9 11 10 10 10 9 9
2 2 2 2 2 2 2 1 2 3 3 3 4 4 5 9 9 9 10 10 9 8 8 8 8 9 9 9 6 6 5 5 6 8 9 9 9 10 12 9 9 11 9 8 8 8 8
2 2 2 2 2 2 2 2 2 2 3 2 3 3 7 10 8 9 9 8 9 9 9 8 8 9 7 4 4 4 5 5 5 6 6 10 10 10 11 10 14 9 6 6 7 7 6
2 2 2 2 2 2 2 2 2 2 3 1 2 5 7 8 7 8 8 8 8 7 8 8 7 5 4 5 9 10 9 9 8 6 6 7 10 11 13 12 10 9 10 10 12 9 6
1 1 2 2 2 2 2 2 2 2 2 1 2 2 5 6 7 6 7 8 9 9 7 8 5 4 5 8 10 14 15 13 13 11 6 7 7 12 11 15 16 13 9 7 7 13 6
2 1 2 2 2 2 2 2 2 2 2 2 3 1 3 6 4 5 7 8 7 8 9 8 7 7 6 10 13 14 13 13 15 14 12 12 12 14 13 14 11 8 8 7 16 12 6
2 1 2 2 2 1 1 1 1 1 2 2 3 1 2 4 4 4 4 6 6 6 10 7 7 8 9 12 12 12 14 13 13 10 11 12 13 13 12 14 16 7 8 13 10 6 7
2 2 1 2 2 1 1 1 1 1 2 2 3 1 1 4 3 2 2 2 3 3 6 5 7 8 8 11 10 11 13 11 13 15 9 13 10 12 11 11 7 6 8 7 7 8 8